Powrót do katalogu

STARLINK-6324

AktywnyŁącznośćVLEO
NORAD 57353·PAYLOAD·🇺🇸 United States

Wystrzelony Jul 16, 2023 z Cape Canaveral Space Force Station

Loading…

Następne Przeloty (najbliższe 24 godziny)

TLE

ŚwieżeSource: CelesTrak SupGP

Epoka: Sep 15, 2026, 03:01 UTC

1 57353C 23099AB  26258.12618056 -.00021515  00000+0 -77933-3 0  2583
2 57353  42.9995 259.1154 0001348 260.6707 282.9399 15.27586799    16

Śledź STARLINK-6324 w czasie rzeczywistym z AllMySat

Download on the App Store